Location: ??????
(42.0089°N, 44.3281°E)
Time: 18:41:43
(UTC+00:00)

Okean 1-7 Rocket - Pass Details

Date: 24 October 2021
Orbit: 617 x 648 km, 82.5° (Epoch: 01 December)

Event Time Altitude Azimuth Distance (km) Brightness Sun altitude
Rises 14:37:53 0° 359° (N) 2,908 6.9 -6.3°
Reaches altitude 10° 14:40:14 10° 7° (N) 2,001 6.0 -6.8°
Maximum altitude 14:44:24 39° 77° (ENE) 937 4.0 -7.5°
Drops below altitude 10° 14:48:34 10° 147° (SSE) 2,003 5.9 -8.3°
Sets 14:50:55 0° 155° (SSE) 2,911 6.8 -8.7°
